CATSAT-2

Last updated on Wed Apr 14 2021 00:02:13 GMT+0000 (Coordinated Universal Time)

1 44029U 98067PV 21103.18846432 .08994300 12447-4 71822-3 0 9990 2 44029 51.6303 210.8330 0006076 315.2983 44.7553 16.39157428125817

Satellite not in orbit